Satellite-Ground Cal/Val Site Overpasses Predictions

Prediction of Satellite NPP Overpassing Cal/Val Site: Antarctic Dome C

Ground Cal/Val Site Location: Latitude: -75.10, Longitude: 123.35; Satellite-Ground Site NADIR distance within 100 km.

Table of predicted overpasses for the next 14.0 days since TLE Epoch: 3/10/2017
Interval Starting Time Ending Time Minimum Distance Time Minimum Distance (km)
1 03/12/2017 15:07:28 03/12/2017 15:07:37 03/12/2017 15:07:32 95.40
2 03/13/2017 14:48:28 03/13/2017 14:48:57 03/13/2017 14:48:42 15.93
3 03/15/2017 07:31:16 03/15/2017 07:31:45 03/15/2017 07:31:30 2.91
4 03/18/2017 14:54:40 03/18/2017 14:55:09 03/18/2017 14:54:54 20.18
5 03/19/2017 14:35:58 03/19/2017 14:36:12 03/19/2017 14:36:05 86.82
6 03/20/2017 07:37:29 03/20/2017 07:37:56 03/20/2017 07:37:42 34.91
7 03/21/2017 07:18:43 03/21/2017 07:19:02 03/21/2017 07:18:52 75.30
8 03/23/2017 15:00:55 03/23/2017 15:01:19 03/23/2017 15:01:07 56.85


NCC Satellite Cal/Val Overpasses Prediction Service
